This is the latest recevied weather packets stored in our database for station/object KC8QDR-1. If no packets are shown the sender has not sent any weather packets the latest 1 day(s).
| Time | Temp. | Humidity | Pressure | Rain* | Wind** | Luminosity | Snow |
|---|---|---|---|---|---|---|---|
| 1778051925 | 8.89° C | 96% | 1013.6 hPa | 3.56 mm | 1.79 m/s, 335° | - | - |
| 1778051325 | 8.89° C | 96% | 1013.6 hPa | 3.3 mm | 1.79 m/s, 333° | - | - |
| 1778050725 | 9.44° C | 96% | 1013.5 hPa | 2.54 mm | 2.24 m/s, 327° | - | - |
| 1778050125 | 9.44° C | 96% | 1013.6 hPa | 2.54 mm | 0.89 m/s, 357° | - | - |
| 1778049525 | 10° C | 96% | 1013.7 hPa | 2.54 mm | 1.79 m/s, 5° | - | - |
| 1778048925 | 10° C | 96% | 1013.8 hPa | 1.78 mm | 1.79 m/s, 347° | - | - |
| 1778048325 | 10° C | 96% | 1013.9 hPa | 1.78 mm | 0.89 m/s, 351° | - | - |
| 1778047725 | 10° C | 96% | 1014 hPa | 1.27 mm | 1.79 m/s, 351° | - | - |
| 1778047125 | 10° C | 96% | 1014.3 hPa | 1.52 mm | 0 m/s | - | - |
| 1778046525 | 10° C | 96% | 1014.3 hPa | 1.02 mm | 0.45 m/s, 56° | - | - |
| 1778045925 | 10° C | 96% | 1014.4 hPa | 1.02 mm | 0.89 m/s, 21° | - | - |
| 1778045325 | 10° C | 96% | 1014.6 hPa | 1.52 mm | 1.34 m/s, 19° | - | - |
| 1778044725 | 10° C | 96% | 1014.6 hPa | 1.27 mm | 2.68 m/s, 7° | - | - |
| 1778044125 | 10° C | 96% | 1014.7 hPa | 1.78 mm | 0 m/s | - | - |
| 1778043525 | 10° C | 96% | 1014.7 hPa | 1.78 mm | 1.79 m/s, 25° | - | - |
| 1778042925 | 10° C | 96% | 1015 hPa | 2.29 mm | 1.79 m/s, 5° | - | - |
| 1778042325 | 10° C | 96% | 1014.9 hPa | 2.29 mm | 1.34 m/s, 12° | - | - |
| 1778041725 | 10.56° C | 96% | 1015 hPa | 1.78 mm | 1.34 m/s, 359° | - | - |
| 1778041125 | 10° C | 96% | 1015.1 hPa | 2.29 mm | 2.24 m/s, 357° | - | - |
| 1778040525 | 10° C | 96% | 1015.3 hPa | 2.54 mm | 1.79 m/s, 7° | - | - |
| 1778039925 | 10.56° C | 96% | 1015.2 hPa | 2.54 mm | 0 m/s | - | - |
| 1778039325 | 10.56° C | 96% | 1015.3 hPa | 2.29 mm | 0.89 m/s, 14° | - | - |
| 1778038725 | 10.56° C | 96% | 1015.6 hPa | 2.54 mm | 0 m/s | - | - |
| 1778038125 | 10.56° C | 96% | 1016.1 hPa | 2.54 mm | 0 m/s | - | - |
| 1778037525 | 10.56° C | 96% | 1015.6 hPa | 2.54 mm | 0.45 m/s, 237° | - | - |
* Rain latest hour (hover to see other rain measurements)
** Current wind speed in m/s (hover to see current wind gust speed)